Hourly Data Report for June 13, 2021

WINNIPEG THE FORKS
MANITOBA
Current Station Operator: ECCC - MSC

49°53'18.008" N
97°07'46.007" W
230.00 m
5023262
71579
XWN

Download Data

Hourly Data (June 2021)
Hourly Data Report for June 13, 2021
TIME
LST
Temp Definition
°C
Dew Point Definition
°C
Rel Hum Definition
%
Precip. Amount Definition
mm

Wind Dir Definition
10's deg

Wind Spd Definition
km/h
Visibility Definition
km
Stn Press Definition
kPa
Hmdx Definition


Wind Chill Definition


Weather Definition


00:00 20.6 9.0 47 0.0 21 8   98.47     LegendNANA
01:00 20.0 9.5 51 0.0 22 7   98.46     LegendNANA
02:00 19.9 9.6 52 0.0 21 8   98.46     LegendNANA
03:00 17.8 11.3 66 0.4 34 5   98.59     LegendNANA
04:00 17.2 11.4 69 0.0 0 1   98.64     LegendNANA
05:00 17.1 11.9 71 0.0 10 1   98.65     LegendNANA
06:00 17.8 11.6 67 0.0 11 2   98.66     LegendNANA
07:00 19.7 11.0 57 0.0 17 1   98.68     LegendNANA
08:00 21.1 11.5 54 0.0 34 4   98.72     LegendNANA
09:00 22.2 10.8 49 0.0 28 6   98.74     LegendNANA
10:00 23.7 9.2 40 0.0 27 7   98.76 25   LegendNANA
11:00 24.9 8.5 35 0.0 26 6   98.79 26   LegendNANA
12:00 25.8 7.2 30 0.0 32 10   98.78 26   LegendNANA
13:00 26.3 5.1 26 0.0 29 8   98.77 26   LegendNANA
14:00 26.4 4.4 24 0.0 31 13   98.81 25   LegendNANA
15:00 26.6 2.7 21 0.0 31 10   98.82 25   LegendNANA
16:00 26.6 2.9 22 0.0 30 9   98.82 25   LegendNANA
17:00 26.7 5.0 25 0.0 32 13   98.80 26   LegendNANA
18:00 26.4 5.0 25 0.0 32 11   98.80 26   LegendNANA
19:00 25.9 3.9 24 0.0 33 12   98.82 25   LegendNANA
20:00 24.6 4.5 27 0.0 33 9   98.85     LegendNANA
21:00 23.8 4.6 29 0.0 33 6   98.87     LegendNANA
22:00 23.6 4.4 29 0.0 29 2   98.89     LegendNANA
23:00 23.1 4.9 31 0.0 28 4   98.91     LegendNANA

Notes on Data Quality.

Legend

  • E = Estimated
  • M = Missing
  • NA = Not Available*
  • [empty] = Indicates an unobserved value
Date modified: